Content
SEND FEEDBACK

Daily
Averages
Monthly
Summary
United States of America

RAPID CITY, SOUTH DAKOTA


Home > North America > United States > South Dakota
Elevation: 963 meters     Latitude: 44 03N     Longitude: 103 04W

WEATHER
 
SELECT A DAY
Number of Records: 200,329;   Date Range: 1/1/95 - 7/29/14
 
SHARE

PRINT THIS DATA

[ ← Previous Day ]
WEATHER ALMANAC - 3 FEBRUARY, 2013
[ Next Day → ]
[ °F ]   °C
Weather ElementAverageHighLow
Temperature3.7 °C14.4 °C (1:52 pm)-4 °C (4:52 am)
Dewpoint-6.9 °C-2.8 °C (9:52 am)-9.4 °C (1:52 pm)
Humidity51.3 %75 % (3:52 am)19 % (1:52 pm)
Barometer1014.6 hPa1020.7 hPa (2:52 am)1009.5 hPa (1:52 pm)
Wind Speed14.8 km/h42.6 km/h (3:52 pm)
Wind Gust59.2 km/h (2:52 pm)
Weather ElementAverage
Visibility16.1 km
Wind DirectionSSW (215.2 °)

Weather ElementTotal
Precipitation---
Heating Degree Days13.2 (Base 18.3)
Averaged from 23 records on 3 February, 2013
WEATHER CONDITIONS BREAKOUT
WIND DIRECTION BREAKOUT
WEATHER BY HOUR - 3 FEBRUARY, 2013
[ °F ]   °C
Local TimeTemperatureDewpointHumidityBarometerVisibilityWind DirectionWind SpeedGust SpeedPrecipitationEventsConditions
1:52 AM-3 °C-7 °C74 %1019.3 hPaCalmClear
2:52 AM-3.3 °C-7.8 °C71 %1020.7 hPaWSW (250°)7.4 km/hClear
3:52 AM-3.3 °C-7.2 °C75 %1020 hPaCalmClear
4:52 AM-4 °C-8 °C74 %1016.6 hPaCalmClear
5:52 AM-2.2 °C-7.2 °C69 %1018.6 hPaSSW (210°)7.4 km/hClear
6:52 AM-3.3 °C-8.3 °C69 %1017.9 hPa16.1 kmWSW (250°)9.3 km/hClear
7:52 AM-1.1 °C-6.1 °C69 %1017.3 hPa16.1 kmCalmClear
8:52 AM1.7 °C-4.4 °C64 %1015.9 hPa16.1 kmCalmClear
9:52 AM5 °C-2.8 °C57 %1014.2 hPa16.1 kmCalmClear
10:52 AM10 °C-5.6 °C33 %1013.2 hPa16.1 kmSSW (200°)14.8 km/hClear
11:52 AM11.1 °C-6.7 °C28 %1011.9 hPa16.1 kmSouth (180°)14.8 km/hClear
12:52 PM12.2 °C-7.8 °C24 %1011.2 hPa16.1 kmSW (230°)7.4 km/hClear
1:52 PM14.4 °C-9.4 °C19 %1009.5 hPa16.1 kmNW (320°)20.4 km/h27.8 km/hClear
2:52 PM12.8 °C-9.4 °C21 %1009.8 hPa16.1 kmNNW (340°)38.9 km/h59.2 km/hClear
3:52 PM11.1 °C-8.9 °C24 %1010.8 hPa16.1 kmNNW (340°)42.6 km/h53.8 km/hClear
4:52 PM7.8 °C-7.8 °C33 %1011.2 hPa16.1 kmNW (310°)29.6 km/hClear
5:52 PM5.6 °C-7.2 °C40 %1011.9 hPa16.1 kmNW (320°)25.9 km/hClear
6:52 PM5 °C-6.7 °C43 %1012.9 hPa16.1 kmNNW (330°)29.6 km/hClear
7:52 PM3.9 °C-6.1 °C49 %1013.2 hPa16.1 kmNNW (330°)25.9 km/hClear
8:52 PM2.2 °C-6.1 °C55 %1013.9 hPa16.1 kmNNW (330°)18.5 km/hClear
9:52 PM1.1 °C-6.1 °C59 %1013.9 hPa16.1 kmNW (320°)13 km/hClear
10:52 PM0.6 °C-5.6 °C64 %1013.9 hPa16.1 kmNorth (350°)16.7 km/hClear
11:52 PM0 °C-5.6 °C66 %1014.2 hPaNNW (340°)18.5 km/hClear
Hourly data recorded from KRAP, located 0 kilometers away from Rapid City, South Dakota







STORIES FROM OUR PARTNERS